User: anonymous   Login
Location: Zagreb
(45.8000°N, 16.0000°E)
Time: 21:59:36
(UTC+02:00)
Language:

Transit 2A Rocket - Orbit

View from above orbital plane
View from above orbital plane
View from above satellite
View from above satellite

Ground track
Ground track

The orbit data is extracted from the following two-line orbital elements,

1 00047U 60007C   24205.42300548  .00001122  00000-0  26291-3 0  9992
2 00047  66.6654 109.3206 0230636 286.7571  70.8343 14.43672886350599
Epoch (UTC): 23 July 2024 10:09:07
Eccentricity: 0.0230636
inclination: 66.6654°
perigee height: 582 km
apogee height: 911 km
right ascension of ascending node: 109.3206°
argument of perigee: 286.7571°
revolutions per day: 14.43672886
mean anomaly at epoch: 70.8343°
orbit number at epoch: 35059

The dashed part of the orbit path shows where the satellite is in the earth's shadow,  

DLR